OSCAR 7 (AO-7) (7530 NORAD) Tracking and Keplerian Element Data

This shows tracking and keplerian element data for the satellite.

Feedback or suggestion? Click here.




ElementValue
Catalog7530
NameOSCAR 7 (AO-7)
Epoch Orbit26788
Epoch Day159.96991084
Epoch Year2024
RAAN154.5322
Inclination101.9774
Eccentricity0.0012618
Argument of Perigee101.4324
Mean Anonmoly316.362
Mean Motion12.53676046
Decay Rate-4E-07
L11 07530U 74089B 24159.96991084 -.00000040 00000+0 39082-4 0 9990
L22 07530 101.9774 154.5322 0012618 101.4324 316.3620 12.53676046267883



Live tracking and technical data element details for OSCAR 7 (AO-7) (NORAD 7530). OSCAR 7 (AO-7) can be tracked NOW for your location showing map with azimuth and elevation plus other details from your city location.







IsCatalogInMostPopularTable: catalog: 7530, numindb: 4716
Update: records affected: 1



GetName: 7530 OSCAR 7 (AO-7)

Hit Count: updated at: Tue, 17 Sep 2024 13:04:13 GMT